This demonstration page uses our WeatherBlox Daily Observations layout. Learn more.

Left ArrowRight Arrow

34.74481, -87.66753

Hourly Observations for August 20, 2022

Temp ( °F °C ) Dew Point ( °F °C ) Humidity (%) Winds ( mph kmh ) Pressure ( in mb ) Visibility ( mi km ) Precip ( " mm )
12:53 am 00:53 Clear 72 22.2 70 21.1 93 93 E 5 7 30.01 1016 9 14 0.00 0.00
1:53 am 01:53 Mostly Cloudy 73 22.8 70 21.1 90 90 ESE 3 6 30.00 1016 9 14 0.00 0.00
2:53 am 02:53 Cloudy 73 22.8 71 21.7 94 94 Calm 29.99 1016 8 13 0.00 0.00
3:53 am 03:53 Partly Cloudy with Mist and Fog 72 22.2 70 21.1 93 93 SSE 3 6 30.00 1016 6 10 0.00 0.00
4:53 am 04:53 Mostly Cloudy 73 22.8 71 21.7 94 94 SSE 3 6 30.02 1017 8 13 0.00 0.00
5:42 am 05:42 Mostly Cloudy 73 22.8 71 21.7 94 94 Calm 30.04 1017 7 11 0.00 0.00
5:53 am 05:53 Cloudy 73 22.8 71 21.7 94 94 ESE 3 6 30.04 1017 8 13 0.00 0.00
6:31 am 06:31 Mostly Cloudy 74 23.3 72 22.2 94 94 SSE 3 6 30.05 1018 8 13 0.00 0.00
6:53 am 06:53 Mostly Cloudy 75 23.9 72 22.2 90 90 S 3 6 30.05 1018 9 14 0.00 0.00
7:07 am 07:07 Cloudy 75 23.9 72 22.2 90 90 Calm 30.06 1018 8 13 0.00 0.00
7:53 am 07:53 Cloudy 77 25 73 22.8 88 88 SSW 5 7 30.06 1018 10 16 0.00 0.00
8:17 am 08:17 Cloudy 78 25.6 73 22.8 85 85 SSW 8 13 30.07 1018 10 16 0.00 0.00
8:53 am 08:53 Cloudy 79 26.1 73 22.8 82 82 SSW 6 9 30.07 1018 10 16 0.00 0.00
9:38 am 09:38 Cloudy 81 27.2 73 22.8 77 77 S 8 13 30.07 1018 10 16 0.00 0.00
9:53 am 09:53 Mostly Cloudy 83 28.3 73 22.8 72 72 S 7 11 30.07 1018 10 16 0.00 0.00
10:53 am 10:53 Cloudy 84 28.9 73 22.8 70 70 SSW 9 15 30.08 1019 10 16 0.00 0.00
11:12 am 11:12 Mostly Cloudy 84 28.9 72 22.2 67 67 WSW 13 20 30.07 1018 10 16 0.00 0.00
11:53 am 11:53 Mostly Cloudy 83 28.3 72 22.2 70 70 SW 13 20 30.07 1018 10 16 0.00 0.00
12:53 pm 12:53 Partly Cloudy 83 28.3 71 21.7 67 67 WSW 15 24 30.07 1018 10 16 0.00 0.00
1:53 pm 13:53 Mostly Sunny 84 28.9 72 22.2 67 67 W 12 19 30.05 1018 10 16 0.01 0.13
2:53 pm 14:53 Sunny 86 30 70 21.1 59 59 SW 10 17 30.01 1016 10 16 0.00 0.00
3:53 pm 15:53 Sunny 87 30.6 68 20 53 53 SW 9 15 30.01 1016 10 16 0.00 0.00
4:53 pm 16:53 Mostly Cloudy 86 30 69 20.6 57 57 W 7 11 30.01 1016 10 16 0.00 0.00
5:53 pm 17:53 Mostly Sunny 87 30.6 70 21.1 57 57 VRB 5 7 30.00 1016 10 16 0.00 0.00
6:53 pm 18:53 Mostly Cloudy 85 29.4 71 21.7 63 63 NW 5 7 30.00 1016 10 16 0.00 0.00
7:53 pm 19:53 Partly Cloudy 80 26.7 72 22.2 76 76 Calm 30.01 1016 10 16 0.00 0.00
8:53 pm 20:53 Mostly Cloudy 78 25.6 72 22.2 82 82 SE 3 6 30.03 1017 10 16 0.00 0.00
9:53 pm 21:53 Mostly Cloudy 77 25 71 21.7 82 82 S 16 26 30.05 1018 10 16 0.00 0.00
10:09 pm 22:09 Cloudy with Thunderstorms 76 24.4 73 22.8 91 91 SSE 9 15 30.06 1018 4 6 0.05 1.27
10:19 pm 22:19 Cloudy with Nearby Thunderstorms 76 24.4 73 22.8 91 91 SSW 8 13 30.07 1018 5 8 0.07 1.78
10:29 pm 22:29 Cloudy with Rain 76 24.4 73 22.8 91 91 SSW 7 11 30.07 1018 3 5 0.11 2.79
10:53 pm 22:53 Mostly Clear with Nearby Thunderstorms 75 23.9 73 22.8 94 94 E 5 7 30.06 1018 10 16 0.13 3.30
11:11 pm 23:11 Partly Cloudy 75 23.9 73 22.8 94 94 SE 5 7 30.05 1018 10 16 0.00 0.00
11:53 pm 23:53 Partly Cloudy 75 23.9 72 22.2 90 90 Calm 30.03 1017 10 16 0.00 0.00

Powered by AerisWeather